Location: Bakov nad Jizerou
(50.4784°N, 14.9394°E)
Time: 09:20:02
(UTC+00:00)

Cosmos 1602 Rocket - Pass Details

Date: 16 June 2021
Orbit: 602 x 634 km, 82.5° (Epoch: 04 August)

Event Time Altitude Azimuth Distance (km) Brightness Sun altitude
Exits shadow 22:49:54 26° 149° (SSE) 1,266 4.6 -16.1°
Maximum altitude 22:52:01 44° 93° (E) 881 4.3 -16.1°
Drops below altitude 10° 22:56:18 10° 22° (NNE) 2,031 7.3 -16.1°
Sets 22:58:37 0° 16° (NNE) 2,943 8.5 -16.1°
